SUPERVIEW NEO-2 03

导读 | 星芒AI

SUPERVIEW NEO-2 03 是中国高分辨率商业遥感卫星“超算星座”计划的一部分,由长光卫星技术有限公司研制。该卫星具备高分辨率、多光谱成像能力,主要用于土地监测、城市规划、灾害评估等领域。其发射进一步提升了中国在商业遥感领域的数据获取能力和应用水平,为政府、企业及科研机构提供高效、精准的遥感数据服务。

基本信息
目录编号:
62079
目录名称:
SUPERVIEW NEO-2 03
国际标识:
2024-218B
轨道中心:
EARTH
卫星名称:
SUPERVIEW NEO-2 03
卫星全名:
SUPERVIEW NEO-2 03
卫星状态:
在轨 (已飞行384 天)
发射日期:
2024-11-24 UTC
国别 :
中国 (CN)
星等 :
--
轨道信息
数据来源 国际轨道数据
星历时间: 2025-12-12T21:58:50+0800
19小时前
查看轨道信息
半长轴: 6884.828km
偏心率: 0.0001648
轨道倾角: 97.439°
近地点辐角 90.026°
升交点赤经 351.593°
平近点角 270.116°
近地点: 505.558km
远地点: 507.828km
周期: 94.754分钟
每日圈数: 15.197185
详细信息
使用方式:
暂无
2D轨道图
3D轨道图
轨道高度分析图
轨道倾角分析图
轨道综合分析图
查看轨道综合分析图